QB50P1

Last updated on Fri Dec 19 2025 00:03:11 GMT+0000 (Coordinated Universal Time)

1 40025U 14033R 25352.50000517 .00007516 00000+0 41091-3 0 9993 2 40025 98.0961 346.4611 0010982 117.5506 242.6841 15.14558452625646
UTC large
Height (km)
Speed (km/s)
/
Latitude / Longitude
Inclination (degrees)
Orbital Period (minutes)
Azimuth
Elevation
Range (km)
Doppler Factor

Next 0 passes for location: London (51.5072 / 0.1276)

Sorry there are no passes over London.